Time,TemperatureF,DewpointF,PressureIn,WindDirection,WindDirectionDegrees,WindSpeedMPH,WindSpeedGustMPH,Humidity,HourlyPrecipIn,Conditions,Clouds,dailyrainin,SoftwareType,DateUTC
2013-07-19 00:04:00,66.4,58.6,30.07,WNW,292,0.0,0.0,76,0.00,CLR,SKC,0.00,WeatherDisplay:10.37,2013-07-18 22:04:00,
2013-07-19 00:09:00,66.6,59.1,30.07,WNW,292,0.0,0.0,77,0.00,CLR,SKC,0.00,WeatherDisplay:10.37,2013-07-18 22:09:00,
2013-07-19 00:14:00,66.6,59.1,30.07,WNW,292,0.0,0.0,77,0.00,CLR,SKC,0.00,WeatherDisplay:10.37,2013-07-18 22:14:00,
2013-07-19 00:19:00,66.6,58.8,30.07,WNW,292,0.0,0.0,76,0.00,CLR,SKC,0.00,WeatherDisplay:10.37,2013-07-18 22:19:00,
2013-07-19 00:21:00,66.6,58.8,30.07,WNW,292,0.0,0.0,76,0.00,CLR,SKC,0.00,WeatherDisplay:10.37,2013-07-18 22:21:00,
2013-07-19 00:26:00,66.6,58.8,30.07,WNW,292,0.0,0.0,76,0.00,CLR,SKC,0.00,WeatherDisplay:10.37,2013-07-18 22:26:00,
2013-07-19 00:31:00,66.6,59.1,30.08,WNW,292,0.0,0.0,77,0.00,CLR,SKC,0.00,WeatherDisplay:10.37,2013-07-18 22:31:00,
2013-07-19 00:36:00,66.6,59.1,30.08,WNW,292,0.0,0.0,77,0.00,CLR,SKC,0.00,WeatherDisplay:10.37,2013-07-18 22:36:00,
2013-07-19 00:41:00,66.6,59.1,30.07,WNW,292,0.0,0.0,77,0.00,CLR,SKC,0.00,WeatherDisplay:10.37,2013-07-18 22:41:00,
2013-07-19 00:46:00,66.7,59.3,30.07,WNW,292,0.0,0.0,77,0.00,CLR,SKC,0.00,WeatherDisplay:10.37,2013-07-18 22:46:00,
2013-07-19 00:51:00,66.7,59.3,30.07,WNW,292,0.0,0.0,77,0.00,CLR,SKC,0.00,WeatherDisplay:10.37,2013-07-18 22:51:00,
2013-07-19 00:56:00,66.7,59.7,30.07,WNW,292,0.0,0.0,78,0.00,CLR,SKC,0.00,WeatherDisplay:10.37,2013-07-18 22:56:00,
2013-07-19 01:01:00,66.7,59.7,30.07,WNW,292,0.0,0.0,78,0.00,CLR,SKC,0.00,WeatherDisplay:10.37,2013-07-18 23:01:00,
2013-07-19 01:06:00,66.7,59.7,30.07,WNW,292,0.0,0.0,78,0.00,CLR,SKC,0.00,WeatherDisplay:10.37,2013-07-18 23:06:00,
2013-07-19 01:11:00,66.9,59.8,30.07,WNW,292,0.0,0.0,78,0.00,CLR,SKC,0.00,WeatherDisplay:10.37,2013-07-18 23:11:00,
2013-07-19 01:16:00,66.9,59.8,30.07,WNW,292,0.0,0.0,78,0.00,CLR,SKC,0.00,WeatherDisplay:10.37,2013-07-18 23:16:00,
2013-07-19 01:21:00,66.9,59.8,30.07,WNW,292,0.0,0.0,78,0.00,CLR,SKC,0.00,WeatherDisplay:10.37,2013-07-18 23:21:00,
2013-07-19 01:26:00,66.9,59.8,30.06,WNW,292,0.0,0.0,78,0.00,CLR,SKC,0.00,WeatherDisplay:10.37,2013-07-18 23:26:00,
2013-07-19 01:31:00,66.9,59.8,30.06,WNW,292,0.0,0.0,78,0.00,CLR,SKC,0.00,WeatherDisplay:10.37,2013-07-18 23:31:00,
2013-07-19 01:36:00,66.9,59.8,30.07,NNE,22,0.0,0.0,78,0.00,CLR,SKC,0.00,WeatherDisplay:10.37,2013-07-18 23:36:00,
2013-07-19 01:41:00,66.9,59.8,30.07,NNE,22,0.0,0.0,78,0.00,CLR,SKC,0.00,WeatherDisplay:10.37,2013-07-18 23:41:00,
2013-07-19 01:46:00,66.9,59.8,30.06,NNW,338,0.0,0.0,78,0.00,CLR,SKC,0.00,WeatherDisplay:10.37,2013-07-18 23:46:00,
2013-07-19 01:51:00,66.9,59.8,30.06,NW,315,0.0,0.0,78,0.00,CLR,SKC,0.00,WeatherDisplay:10.37,2013-07-18 23:51:00,
2013-07-19 01:56:00,67.1,60.0,30.06,NNW,338,0.0,1.2,78,0.00,CLR,SKC,0.00,WeatherDisplay:10.37,2013-07-18 23:56:00,
2013-07-19 02:01:00,67.1,60.0,30.06,NW,315,0.0,0.0,78,0.00,CLR,SKC,0.00,WeatherDisplay:10.37,2013-07-19 00:01:00,
2013-07-19 02:06:00,67.3,59.8,30.06,NW,315,0.0,0.0,77,0.00,CLR,SKC,0.00,WeatherDisplay:10.37,2013-07-19 00:06:00,
2013-07-19 02:11:00,67.6,60.2,30.06,WNW,292,0.0,0.0,77,0.00,CLR,SKC,0.00,WeatherDisplay:10.37,2013-07-19 00:11:00,
2013-07-19 02:16:00,67.6,60.2,30.06,WNW,292,0.3,1.2,77,0.00,CLR,SKC,0.00,WeatherDisplay:10.37,2013-07-19 00:16:00,
2013-07-19 02:21:00,67.8,60.0,30.06,NW,315,0.0,0.0,76,0.00,CLR,SKC,0.00,WeatherDisplay:10.37,2013-07-19 00:21:00,
2013-07-19 02:26:00,67.8,60.0,30.05,NW,315,0.0,0.0,76,0.00,CLR,SKC,0.00,WeatherDisplay:10.37,2013-07-19 00:26:00,
2013-07-19 02:31:00,68.0,60.2,30.05,WNW,292,0.0,0.0,76,0.00,CLR,SKC,0.00,WeatherDisplay:10.37,2013-07-19 00:31:00,
2013-07-19 02:36:00,68.2,60.3,30.05,WSW,248,0.0,0.0,76,0.00,CLR,SKC,0.00,WeatherDisplay:10.37,2013-07-19 00:36:00,
2013-07-19 02:41:00,68.2,60.3,30.05,WSW,248,0.0,0.0,76,0.00,CLR,SKC,0.00,WeatherDisplay:10.37,2013-07-19 00:41:00,
2013-07-19 02:46:00,68.0,60.2,30.06,WSW,248,0.0,0.0,76,0.00,CLR,SKC,0.00,WeatherDisplay:10.37,2013-07-19 00:46:00,
2013-07-19 02:51:00,68.0,60.2,30.05,WSW,248,0.0,0.0,76,0.00,CLR,SKC,0.00,WeatherDisplay:10.37,2013-07-19 00:51:00,
2013-07-19 02:56:00,68.0,60.2,30.05,West,270,0.0,0.0,76,0.00,CLR,SKC,0.00,WeatherDisplay:10.37,2013-07-19 00:56:00,
2013-07-19 03:01:00,67.8,60.0,30.05,West,270,0.0,0.0,76,0.00,CLR,SKC,0.00,WeatherDisplay:10.37,2013-07-19 01:01:00,
2013-07-19 03:06:00,67.8,60.0,30.05,West,270,0.0,0.0,76,0.00,CLR,SKC,0.00,WeatherDisplay:10.37,2013-07-19 01:06:00,
2013-07-19 03:11:00,67.8,60.0,30.05,South,180,0.0,0.0,76,0.00,CLR,SKC,0.00,WeatherDisplay:10.37,2013-07-19 01:11:00,
2013-07-19 03:16:00,67.8,60.3,30.05,WSW,248,0.0,0.0,77,0.00,CLR,SKC,0.00,WeatherDisplay:10.37,2013-07-19 01:16:00,
2013-07-19 03:21:00,67.8,60.3,30.05,WSW,248,0.0,0.0,77,0.00,CLR,SKC,0.00,WeatherDisplay:10.37,2013-07-19 01:21:00,
2013-07-19 03:26:00,67.6,59.8,30.05,WSW,248,0.0,0.0,76,0.00,CLR,SKC,0.00,WeatherDisplay:10.37,2013-07-19 01:26:00,
2013-07-19 03:31:00,67.6,60.2,30.05,WSW,248,0.0,0.0,77,0.00,CLR,SKC,0.00,WeatherDisplay:10.37,2013-07-19 01:31:00,
2013-07-19 03:36:00,67.6,60.2,30.05,WSW,248,0.0,0.0,77,0.00,CLR,SKC,0.00,WeatherDisplay:10.37,2013-07-19 01:36:00,
2013-07-19 03:41:00,67.6,60.2,30.05,WSW,248,0.0,0.0,77,0.00,CLR,SKC,0.00,WeatherDisplay:10.37,2013-07-19 01:41:00,
2013-07-19 03:46:00,67.6,60.2,30.05,WSW,248,0.0,0.0,77,0.00,CLR,SKC,0.00,WeatherDisplay:10.37,2013-07-19 01:46:00,
2013-07-19 03:51:00,67.6,60.5,30.05,WSW,248,0.0,0.0,78,0.00,CLR,SKC,0.00,WeatherDisplay:10.37,2013-07-19 01:51:00,
2013-07-19 03:56:00,67.6,60.5,30.05,SSE,158,0.0,0.0,78,0.00,CLR,SKC,0.00,WeatherDisplay:10.37,2013-07-19 01:56:00,
2013-07-19 04:01:00,67.6,60.5,30.05,WSW,248,0.0,0.0,78,0.00,CLR,SKC,0.00,WeatherDisplay:10.37,2013-07-19 02:01:00,
2013-07-19 04:06:00,67.6,60.5,30.05,WSW,248,0.0,0.0,78,0.00,CLR,SKC,0.00,WeatherDisplay:10.37,2013-07-19 02:06:00,
2013-07-19 04:11:00,67.6,60.5,30.05,NW,315,0.1,1.1,78,0.00,CLR,SKC,0.00,WeatherDisplay:10.37,2013-07-19 02:11:00,
2013-07-19 04:16:00,67.6,60.5,30.05,North,0,0.0,0.0,78,0.00,CLR,SKC,0.00,WeatherDisplay:10.37,2013-07-19 02:16:00,
2013-07-19 04:21:00,68.2,60.3,30.05,NNE,22,0.0,0.0,76,0.00,CLR,SKC,0.00,WeatherDisplay:10.37,2013-07-19 02:21:00,
2013-07-19 04:26:00,68.2,60.3,30.04,NNE,22,0.0,0.0,76,0.00,CLR,SKC,0.00,WeatherDisplay:10.37,2013-07-19 02:26:00,
2013-07-19 04:31:00,68.5,60.3,30.04,WNW,292,0.0,0.0,75,0.00,CLR,SKC,0.00,WeatherDisplay:10.37,2013-07-19 02:31:00,
2013-07-19 04:36:00,68.5,60.3,30.04,NW,315,0.0,0.0,75,0.00,CLR,SKC,0.00,WeatherDisplay:10.37,2013-07-19 02:36:00,
2013-07-19 04:41:00,68.7,60.1,30.04,North,0,0.0,0.0,74,0.00,CLR,SKC,0.00,WeatherDisplay:10.37,2013-07-19 02:41:00,
2013-07-19 04:46:00,68.7,60.1,30.04,NW,315,0.0,0.0,74,0.00,CLR,SKC,0.00,WeatherDisplay:10.37,2013-07-19 02:46:00,
2013-07-19 04:51:00,68.7,60.1,30.05,NW,315,0.0,0.0,74,0.00,CLR,SKC,0.00,WeatherDisplay:10.37,2013-07-19 02:51:00,
2013-07-19 04:56:00,68.7,60.1,30.04,NW,315,0.0,0.0,74,0.00,CLR,SKC,0.00,WeatherDisplay:10.37,2013-07-19 02:56:00,
2013-07-19 05:01:00,68.5,59.9,30.04,NW,315,0.0,0.0,74,0.00,CLR,SKC,0.00,WeatherDisplay:10.37,2013-07-19 03:01:00,
2013-07-19 05:06:00,68.5,59.9,30.04,NW,315,0.0,0.0,74,0.00,CLR,SKC,0.00,WeatherDisplay:10.37,2013-07-19 03:06:00,
2013-07-19 05:11:00,68.5,60.3,30.04,NW,315,0.0,0.0,75,0.00,CLR,SKC,0.00,WeatherDisplay:10.37,2013-07-19 03:11:00,
2013-07-19 05:16:00,68.4,60.5,30.04,NW,315,0.0,0.0,76,0.00,CLR,SKC,0.00,WeatherDisplay:10.37,2013-07-19 03:16:00,
2013-07-19 05:21:00,68.4,60.5,30.04,NW,315,0.0,0.0,76,0.00,CLR,SKC,0.00,WeatherDisplay:10.37,2013-07-19 03:21:00,
2013-07-19 05:26:00,68.2,60.3,30.04,NW,315,0.0,0.0,76,0.00,CLR,SKC,0.00,WeatherDisplay:10.37,2013-07-19 03:26:00,
2013-07-19 05:31:00,67.8,60.3,30.04,NW,315,0.0,0.0,77,0.00,CLR,SKC,0.00,WeatherDisplay:10.37,2013-07-19 03:31:00,
2013-07-19 05:36:00,67.8,60.7,30.05,NW,315,0.0,0.0,78,0.00,CLR,SKC,0.00,WeatherDisplay:10.37,2013-07-19 03:36:00,
2013-07-19 05:41:00,67.6,60.5,30.04,NW,315,0.0,0.0,78,0.00,CLR,SKC,0.00,WeatherDisplay:10.37,2013-07-19 03:41:00,
2013-07-19 05:46:00,67.6,60.5,30.04,NW,315,0.0,0.0,78,0.00,CLR,SKC,0.00,WeatherDisplay:10.37,2013-07-19 03:46:00,
2013-07-19 05:51:00,67.6,60.9,30.05,NW,315,0.0,0.0,79,0.00,CLR,SKC,0.00,WeatherDisplay:10.37,2013-07-19 03:51:00,
2013-07-19 05:56:00,67.6,60.9,30.05,NW,315,0.0,0.0,79,0.00,CLR,SKC,0.00,WeatherDisplay:10.37,2013-07-19 03:56:00,
2013-07-19 06:01:00,67.6,61.2,30.05,WNW,292,0.0,0.0,80,0.00,CLR,SKC,0.00,WeatherDisplay:10.37,2013-07-19 04:01:00,
2013-07-19 06:03:00,67.6,61.2,30.04,WNW,292,0.0,0.0,80,0.00,CLR,SKC,0.00,WeatherDisplay:10.37,2013-07-19 04:03:00,
2013-07-19 06:04:00,67.6,61.2,30.04,WNW,292,0.0,0.0,80,0.00,CLR,SKC,0.00,WeatherDisplay:10.37,2013-07-19 04:04:00,
2013-07-19 06:09:00,67.6,60.9,30.04,WNW,292,0.0,0.0,79,0.00,CLR,SKC,0.00,WeatherDisplay:10.37,2013-07-19 04:09:00,
2013-07-19 06:14:00,67.8,61.4,30.04,WNW,292,0.0,0.0,80,0.00,CLR,SKC,0.00,WeatherDisplay:10.37,2013-07-19 04:14:00,
2013-07-19 06:19:00,67.8,61.4,30.04,NW,315,0.0,0.0,80,0.00,CLR,SKC,0.00,WeatherDisplay:10.37,2013-07-19 04:19:00,
2013-07-19 06:24:00,67.8,61.4,30.05,NW,315,0.0,0.0,80,0.00,CLR,SKC,0.00,WeatherDisplay:10.37,2013-07-19 04:24:00,
2013-07-19 06:29:00,67.8,61.4,30.05,NW,315,0.0,0.0,80,0.00,CLR,SKC,0.00,WeatherDisplay:10.37,2013-07-19 04:29:00,
2013-07-19 06:34:00,67.8,61.8,30.05,WNW,292,0.0,0.0,81,0.00,CLR,SKC,0.00,WeatherDisplay:10.37,2013-07-19 04:34:00,
2013-07-19 06:39:00,68.0,61.9,30.05,WNW,292,0.0,0.0,81,0.00,CLR,SKC,0.00,WeatherDisplay:10.37,2013-07-19 04:39:00,
2013-07-19 06:44:00,68.0,61.9,30.05,WNW,292,0.0,0.0,81,0.00,CLR,SKC,0.00,WeatherDisplay:10.37,2013-07-19 04:44:00,
2013-07-19 06:49:00,68.4,62.3,30.06,WNW,292,0.0,0.0,81,0.00,CLR,SKC,0.00,WeatherDisplay:10.37,2013-07-19 04:49:00,
2013-07-19 06:54:00,68.4,62.3,30.05,NE,45,0.0,0.0,81,0.00,CLR,SKC,0.00,WeatherDisplay:10.37,2013-07-19 04:54:00,
2013-07-19 06:59:00,68.4,62.3,30.05,NE,45,0.0,0.0,81,0.00,CLR,SKC,0.00,WeatherDisplay:10.37,2013-07-19 04:59:00,
2013-07-19 07:04:00,68.7,62.3,30.04,WNW,292,0.0,0.0,80,0.00,CLR,SKC,0.00,WeatherDisplay:10.37,2013-07-19 05:04:00,
2013-07-19 07:09:00,69.1,62.6,30.04,WNW,292,0.0,0.0,80,0.00,CLR,SKC,0.00,WeatherDisplay:10.37,2013-07-19 05:09:00,
2013-07-19 07:14:00,69.3,62.8,30.04,WNW,292,0.0,0.0,80,0.00,CLR,SKC,0.00,WeatherDisplay:10.37,2013-07-19 05:14:00,
2013-07-19 07:19:00,69.6,62.8,30.04,NW,315,0.0,0.0,79,0.00,CLR,SKC,0.00,WeatherDisplay:10.37,2013-07-19 05:19:00,
2013-07-19 07:24:00,69.8,62.6,30.05,WNW,292,0.0,0.0,78,0.00,CLR,SKC,0.00,WeatherDisplay:10.37,2013-07-19 05:24:00,
2013-07-19 07:29:00,70.2,63.0,30.06,WNW,292,0.0,0.0,78,0.00,CLR,SKC,0.00,WeatherDisplay:10.37,2013-07-19 05:29:00,
2013-07-19 07:34:00,70.3,63.2,30.05,NNW,338,0.0,0.0,78,0.00,CLR,SKC,0.00,WeatherDisplay:10.37,2013-07-19 05:34:00,
2013-07-19 07:39:00,70.5,63.0,30.05,North,0,0.0,0.0,77,0.00,CLR,SKC,0.00,WeatherDisplay:10.37,2013-07-19 05:39:00,
2013-07-19 07:44:00,70.9,63.3,30.05,North,0,0.0,0.0,77,0.00,CLR,SKC,0.00,WeatherDisplay:10.37,2013-07-19 05:44:00,
2013-07-19 07:49:00,70.9,62.9,30.05,North,0,0.0,0.0,76,0.00,CLR,SKC,0.00,WeatherDisplay:10.37,2013-07-19 05:49:00,
2013-07-19 07:54:00,70.9,62.9,30.04,North,0,0.0,0.0,76,0.00,CLR,SKC,0.00,WeatherDisplay:10.37,2013-07-19 05:54:00,
2013-07-19 07:59:00,71.1,63.1,30.05,North,0,0.0,0.0,76,0.00,CLR,SKC,0.00,WeatherDisplay:10.37,2013-07-19 05:59:00,
2013-07-19 08:04:00,71.2,63.3,30.05,North,0,0.0,0.0,76,0.00,CLR,SKC,0.00,WeatherDisplay:10.37,2013-07-19 06:04:00,
2013-07-19 08:09:00,71.2,63.7,30.05,North,0,0.0,0.0,77,0.00,CLR,SKC,0.00,WeatherDisplay:10.37,2013-07-19 06:09:00,
2013-07-19 08:14:00,71.2,62.9,30.05,NNE,22,0.0,0.0,75,0.00,CLR,SKC,0.00,WeatherDisplay:10.37,2013-07-19 06:14:00,
2013-07-19 08:19:00,71.2,62.9,30.04,NE,45,0.0,0.0,75,0.00,CLR,SKC,0.00,WeatherDisplay:10.37,2013-07-19 06:19:00,
2013-07-19 08:24:00,70.9,62.6,30.05,NNW,338,0.0,0.0,75,0.00,CLR,SKC,0.00,WeatherDisplay:10.37,2013-07-19 06:24:00,
2013-07-19 08:29:00,71.1,62.7,30.05,North,0,0.0,0.0,75,0.00,CLR,SKC,0.00,WeatherDisplay:10.37,2013-07-19 06:29:00,
2013-07-19 08:34:00,71.1,62.7,30.05,North,0,0.0,0.0,75,0.00,CLR,SKC,0.00,WeatherDisplay:10.37,2013-07-19 06:34:00,
2013-07-19 08:39:00,70.9,62.6,30.05,ENE,68,0.0,0.0,75,0.00,CLR,SKC,0.00,WeatherDisplay:10.37,2013-07-19 06:39:00,
2013-07-19 08:44:00,70.9,62.6,30.05,NE,45,0.0,0.0,75,0.00,CLR,SKC,0.00,WeatherDisplay:10.37,2013-07-19 06:44:00,
2013-07-19 08:49:00,70.9,62.6,30.06,North,0,0.4,1.2,75,0.00,BKN,SKC,0.00,WeatherDisplay:10.37,2013-07-19 06:49:00,
2013-07-19 08:54:00,70.5,62.2,30.05,North,0,0.0,0.0,75,0.00,BKN,SKC,0.00,WeatherDisplay:10.37,2013-07-19 06:54:00,
2013-07-19 08:59:00,70.5,62.6,30.05,NNW,338,0.0,0.0,76,0.00,BKN,SKC,0.00,WeatherDisplay:10.37,2013-07-19 06:59:00,
2013-07-19 09:04:00,70.5,62.6,30.05,NW,315,0.0,0.0,76,0.00,BKN,SKC,0.00,WeatherDisplay:10.37,2013-07-19 07:04:00,
2013-07-19 09:09:00,70.3,62.8,30.06,NW,315,0.0,0.0,77,0.00,BKN,SKC,0.00,WeatherDisplay:10.37,2013-07-19 07:09:00,
2013-07-19 09:14:00,70.3,62.8,30.05,NNE,22,0.0,0.0,77,0.00,BKN,SKC,0.00,WeatherDisplay:10.37,2013-07-19 07:14:00,
2013-07-19 09:19:00,70.3,62.8,30.05,ENE,68,0.0,0.0,77,0.00,BKN,SKC,0.00,WeatherDisplay:10.37,2013-07-19 07:19:00,
2013-07-19 09:24:00,70.3,62.8,30.05,NE,45,0.0,0.0,77,0.00,BKN,SKC,0.00,WeatherDisplay:10.37,2013-07-19 07:24:00,
2013-07-19 09:29:00,70.2,63.0,30.06,North,0,0.0,0.0,78,0.00,BKN,SKC,0.00,WeatherDisplay:10.37,2013-07-19 07:29:00,
2013-07-19 09:34:00,70.2,62.6,30.05,NNE,22,0.0,0.0,77,0.00,BKN,SKC,0.00,WeatherDisplay:10.37,2013-07-19 07:34:00,
2013-07-19 09:39:00,70.0,62.8,30.05,NNE,22,0.0,0.0,78,0.00,BKN,SKC,0.00,WeatherDisplay:10.37,2013-07-19 07:39:00,
2013-07-19 09:44:00,70.0,62.8,30.05,NE,45,0.0,0.0,78,0.00,BKN,SKC,0.00,WeatherDisplay:10.37,2013-07-19 07:44:00,
2013-07-19 09:49:00,70.0,62.8,30.05,North,0,0.0,0.0,78,0.00,BKN,SKC,0.00,WeatherDisplay:10.37,2013-07-19 07:49:00,
2013-07-19 09:54:00,70.0,62.8,30.05,North,0,0.0,0.0,78,0.00,BKN,SKC,0.00,WeatherDisplay:10.37,2013-07-19 07:54:00,
2013-07-19 09:59:00,70.2,63.3,30.06,NNW,338,0.0,0.0,79,0.00,BKN,SKC,0.00,WeatherDisplay:10.37,2013-07-19 07:59:00,
2013-07-19 10:04:00,70.2,63.3,30.06,NNW,338,0.0,0.0,79,0.00,BKN,SKC,0.00,WeatherDisplay:10.37,2013-07-19 08:04:00,
2013-07-19 10:09:00,70.2,63.3,30.05,WNW,292,0.0,0.0,79,0.00,BKN,SKC,0.00,WeatherDisplay:10.37,2013-07-19 08:09:00,
2013-07-19 10:14:00,70.3,63.5,30.05,East,90,0.0,0.0,79,0.00,BKN,SKC,0.00,WeatherDisplay:10.37,2013-07-19 08:14:00,
2013-07-19 10:19:00,70.5,63.7,30.05,East,90,0.0,0.0,79,0.00,BKN,SKC,0.00,WeatherDisplay:10.37,2013-07-19 08:19:00,
2013-07-19 10:24:00,70.5,63.7,30.05,East,90,0.0,0.0,79,0.00,BKN,SKC,0.00,WeatherDisplay:10.37,2013-07-19 08:24:00,
2013-07-19 10:29:00,70.9,64.0,30.05,East,90,0.0,0.0,79,0.00,BKN,SKC,0.00,WeatherDisplay:10.37,2013-07-19 08:29:00,
2013-07-19 10:34:00,71.2,64.4,30.05,East,90,0.0,0.0,79,0.00,BKN,SKC,0.00,WeatherDisplay:10.37,2013-07-19 08:34:00,
2013-07-19 10:39:00,71.4,63.8,30.05,East,90,0.0,0.0,77,0.00,BKN,SKC,0.00,WeatherDisplay:10.37,2013-07-19 08:39:00,
2013-07-19 10:44:00,71.4,63.8,30.04,East,90,0.0,0.0,77,0.00,BKN,SKC,0.00,WeatherDisplay:10.37,2013-07-19 08:44:00,
2013-07-19 10:49:00,71.8,63.4,30.05,NNE,22,0.0,0.0,75,0.00,BKN,SKC,0.00,WeatherDisplay:10.37,2013-07-19 08:49:00,
2013-07-19 10:54:00,72.1,64.2,30.05,North,0,0.0,0.0,76,0.00,BKN,SKC,0.00,WeatherDisplay:10.37,2013-07-19 08:54:00,
2013-07-19 10:59:00,72.5,64.1,30.04,NNE,22,0.0,0.0,75,0.00,BKN,SKC,0.00,WeatherDisplay:10.37,2013-07-19 08:59:00,
2013-07-19 11:04:00,72.9,64.1,30.04,NNE,22,0.4,0.0,74,0.00,BKN,SKC,0.00,WeatherDisplay:10.37,2013-07-19 09:04:00,
2013-07-19 11:09:00,72.9,64.1,30.04,NNE,22,0.0,0.0,74,0.00,BKN,SKC,0.00,WeatherDisplay:10.37,2013-07-19 09:09:00,
2013-07-19 11:14:00,73.6,64.8,30.04,NNE,22,1.1,1.2,74,0.00,BKN,SKC,0.00,WeatherDisplay:10.37,2013-07-19 09:14:00,
2013-07-19 11:19:00,73.8,64.2,30.04,NE,45,0.7,1.2,72,0.00,BKN,SKC,0.00,WeatherDisplay:10.37,2013-07-19 09:19:00,
2013-07-19 11:24:00,74.8,64.8,30.04,NW,315,0.4,0.0,71,0.00,BKN,SKC,0.00,WeatherDisplay:10.37,2013-07-19 09:24:00,
2013-07-19 11:29:00,75.4,64.9,30.04,North,0,0.0,1.2,70,0.00,BKN,SKC,0.00,WeatherDisplay:10.37,2013-07-19 09:29:00,
2013-07-19 11:34:00,75.7,64.8,30.04,NE,45,0.0,0.0,69,0.00,BKN,SKC,0.00,WeatherDisplay:10.37,2013-07-19 09:34:00,
2013-07-19 11:39:00,76.3,65.4,30.04,NE,45,0.9,1.2,69,0.00,BKN,SKC,0.00,WeatherDisplay:10.37,2013-07-19 09:39:00,
2013-07-19 11:44:00,76.6,64.9,30.04,ESE,112,0.0,0.0,67,0.00,BKN,SKC,0.00,WeatherDisplay:10.37,2013-07-19 09:44:00,
2013-07-19 11:49:00,77.5,65.7,30.04,NNE,22,0.0,0.0,67,0.00,BKN,SKC,0.00,WeatherDisplay:10.37,2013-07-19 09:49:00,
2013-07-19 11:54:00,77.7,65.0,30.04,NW,315,0.0,0.0,65,0.00,BKN,SKC,0.00,WeatherDisplay:10.37,2013-07-19 09:54:00,
2013-07-19 11:59:00,78.1,65.4,30.04,WNW,292,0.0,0.0,65,0.00,BKN,SKC,0.00,WeatherDisplay:10.37,2013-07-19 09:59:00,
2013-07-19 12:04:00,79.0,65.8,30.04,SE,135,0.0,0.0,64,0.00,BKN,SKC,0.00,WeatherDisplay:10.37,2013-07-19 10:04:00,
2013-07-19 12:09:00,79.9,66.6,30.03,NNE,22,1.1,2.3,64,0.00,BKN,SKC,0.00,WeatherDisplay:10.37,2013-07-19 10:09:00,
2013-07-19 12:14:00,80.8,66.5,30.03,ENE,68,0.0,0.0,62,0.00,BKN,SKC,0.00,WeatherDisplay:10.37,2013-07-19 10:14:00,
2013-07-19 12:19:00,81.3,66.5,30.03,ENE,71,0.0,1.0,61,0.00,BKN,SKC,0.00,WeatherDisplay:10.37,2013-07-19 10:19:00,
2013-07-19 12:24:00,81.5,65.3,30.03,East,90,2.1,2.3,58,0.00,BKN,SKC,0.00,WeatherDisplay:10.37,2013-07-19 10:24:00,
2013-07-19 12:29:00,81.1,64.0,30.03,SW,225,0.9,2.3,56,0.00,BKN,SKC,0.00,WeatherDisplay:10.37,2013-07-19 10:29:00,
2013-07-19 12:34:00,81.7,65.0,30.03,NE,45,1.0,1.2,57,0.00,BKN,SKC,0.00,WeatherDisplay:10.37,2013-07-19 10:34:00,
2013-07-19 12:39:00,82.2,65.5,30.03,ENE,68,1.8,3.5,57,0.00,BKN,SKC,0.00,WeatherDisplay:10.37,2013-07-19 10:39:00,
2013-07-19 12:44:00,82.9,66.6,30.03,East,90,0.6,1.2,58,0.00,BKN,SKC,0.00,WeatherDisplay:10.37,2013-07-19 10:44:00,
2013-07-19 12:49:00,82.9,66.1,30.03,WNW,292,1.2,1.2,57,0.00,BKN,SKC,0.00,WeatherDisplay:10.37,2013-07-19 10:49:00,
2013-07-19 12:54:00,83.3,66.0,30.02,East,83,1.0,1.0,56,0.00,BKN,SKC,0.00,WeatherDisplay:10.37,2013-07-19 10:54:00,
2013-07-19 12:59:00,83.8,65.9,30.02,East,90,0.7,2.3,55,0.00,BKN,SKC,0.00,WeatherDisplay:10.37,2013-07-19 10:59:00,
2013-07-19 13:04:00,83.7,65.3,30.02,East,90,0.0,0.0,54,0.00,BKN,SKC,0.00,WeatherDisplay:10.37,2013-07-19 11:04:00,
2013-07-19 13:09:00,83.8,64.9,30.02,SE,135,0.0,0.0,53,0.00,BKN,SKC,0.00,WeatherDisplay:10.37,2013-07-19 11:09:00,
2013-07-19 13:14:00,84.4,65.4,30.02,ENE,68,1.6,4.6,53,0.00,BKN,SKC,0.00,WeatherDisplay:10.37,2013-07-19 11:14:00,
2013-07-19 13:19:00,84.4,65.4,30.02,East,90,2.0,3.5,53,0.00,CLR,SKC,0.00,WeatherDisplay:10.37,2013-07-19 11:19:00,
2013-07-19 13:24:00,84.7,65.7,30.01,ENE,68,0.0,0.0,53,0.00,CLR,SKC,0.00,WeatherDisplay:10.37,2013-07-19 11:24:00,
2013-07-19 13:29:00,84.9,65.9,30.01,East,90,1.1,1.2,53,0.00,CLR,SKC,0.00,WeatherDisplay:10.37,2013-07-19 11:29:00,
2013-07-19 13:34:00,85.8,65.6,30.01,SSW,202,0.0,0.0,51,0.00,CLR,SKC,0.00,WeatherDisplay:10.37,2013-07-19 11:34:00,
2013-07-19 13:39:00,86.5,65.7,30.01,NNE,22,1.8,4.2,50,0.00,CLR,SKC,0.00,WeatherDisplay:10.37,2013-07-19 11:39:00,
2013-07-19 13:44:00,86.7,65.9,30.00,North,0,1.1,1.2,50,0.00,CLR,SKC,0.00,WeatherDisplay:10.37,2013-07-19 11:44:00,
2013-07-19 13:49:00,86.7,65.3,30.00,SSE,158,0.3,0.0,49,0.00,CLR,SKC,0.00,WeatherDisplay:10.37,2013-07-19 11:49:00,
2013-07-19 13:57:00,87.1,64.4,30.00,SE,135,0.7,1.2,47,0.00,CLR,SKC,0.00,WeatherDisplay:10.37,2013-07-19 11:57:00,
2013-07-19 14:02:00,87.3,64.6,30.00,SE,135,1.6,1.6,47,0.00,CLR,SKC,0.00,WeatherDisplay:10.37,2013-07-19 12:02:00,
2013-07-19 14:07:00,87.4,63.5,30.00,East,90,0.7,1.2,45,0.00,CLR,SKC,0.00,WeatherDisplay:10.37,2013-07-19 12:07:00,
2013-07-19 14:12:00,87.4,64.1,29.99,South,180,0.7,3.4,46,0.00,CLR,SKC,0.00,WeatherDisplay:10.37,2013-07-19 12:12:00,
2013-07-19 14:17:00,87.6,64.3,29.99,WNW,292,2.5,2.5,46,0.00,SCT,SKC,0.00,WeatherDisplay:10.37,2013-07-19 12:17:00,
2013-07-19 14:22:00,88.5,65.1,29.99,NNE,22,2.7,3.5,46,0.00,SCT,SKC,0.00,WeatherDisplay:10.37,2013-07-19 12:22:00,
2013-07-19 14:27:00,88.3,63.7,29.99,NNW,338,0.0,0.0,44,0.00,SCT,SKC,0.00,WeatherDisplay:10.37,2013-07-19 12:27:00,
2013-07-19 14:32:00,88.9,64.8,29.99,SSE,158,1.4,2.3,45,0.00,SCT,SKC,0.00,WeatherDisplay:10.37,2013-07-19 12:32:00,
2013-07-19 14:37:00,88.9,64.1,29.99,North,0,0.0,0.0,44,0.00,SCT,SKC,0.00,WeatherDisplay:10.37,2013-07-19 12:37:00,
2013-07-19 14:42:00,89.2,63.8,29.98,NNE,22,2.9,3.1,43,0.00,SCT,SKC,0.00,WeatherDisplay:10.37,2013-07-19 12:42:00,
2013-07-19 14:47:00,89.1,64.3,29.98,ENE,68,1.1,4.6,44,0.00,SCT,SKC,0.00,WeatherDisplay:10.37,2013-07-19 12:47:00,
2013-07-19 14:52:00,88.9,64.1,29.99,NE,45,3.1,5.8,44,0.00,SCT,SKC,0.00,WeatherDisplay:10.37,2013-07-19 12:52:00,
2013-07-19 14:57:00,88.3,63.0,29.99,SW,225,0.0,2.3,43,0.00,SCT,SKC,0.00,WeatherDisplay:10.37,2013-07-19 12:57:00,
2013-07-19 15:02:00,87.8,63.2,29.99,NE,45,1.4,4.6,44,0.00,SCT,SKC,0.00,WeatherDisplay:10.37,2013-07-19 13:02:00,
2013-07-19 15:07:00,87.1,62.5,29.98,NW,315,0.0,0.0,44,0.00,SCT,SKC,0.00,WeatherDisplay:10.37,2013-07-19 13:07:00,
2013-07-19 15:12:00,86.5,62.7,29.98,NE,45,0.8,1.2,45,0.00,SCT,SKC,0.00,WeatherDisplay:10.37,2013-07-19 13:12:00,
2013-07-19 15:17:00,86.9,62.4,29.98,East,90,1.1,2.3,44,0.00,SCT,SKC,0.00,WeatherDisplay:10.37,2013-07-19 13:17:00,
2013-07-19 15:22:00,87.4,64.1,29.98,South,180,0.3,0.9,46,0.00,SCT,SKC,0.00,WeatherDisplay:10.37,2013-07-19 13:22:00,
2013-07-19 15:26:00,87.8,63.2,29.97,ENE,68,0.0,3.5,44,0.00,SCT,SKC,0.00,WeatherDisplay:10.37,2013-07-19 13:26:00,
2013-07-19 15:31:00,87.6,63.7,29.97,NE,45,0.0,0.0,45,0.00,SCT,SKC,0.00,WeatherDisplay:10.37,2013-07-19 13:31:00,
2013-07-19 15:36:00,87.4,62.8,29.97,SSE,158,1.4,3.5,44,0.00,SCT,SKC,0.00,WeatherDisplay:10.37,2013-07-19 13:36:00,
2013-07-19 15:41:00,86.9,63.0,29.97,NE,45,1.8,2.3,45,0.00,SCT,SKC,0.00,WeatherDisplay:10.37,2013-07-19 13:41:00,
2013-07-19 15:46:00,86.2,62.3,29.97,South,180,2.2,2.3,45,0.00,SCT,SKC,0.00,WeatherDisplay:10.37,2013-07-19 13:46:00,
2013-07-19 15:51:00,85.6,62.5,29.97,NW,315,0.0,1.2,46,0.00,SCT,SKC,0.00,WeatherDisplay:10.37,2013-07-19 13:51:00,
2013-07-19 15:56:00,85.5,62.3,29.97,South,180,4.8,5.1,46,0.00,SCT,SKC,0.00,WeatherDisplay:10.37,2013-07-19 13:56:00,
2013-07-19 16:01:00,85.3,62.2,29.97,North,0,0.0,0.0,46,0.00,SCT,SKC,0.00,WeatherDisplay:10.37,2013-07-19 14:01:00,
2013-07-19 16:06:00,84.9,62.4,29.96,South,180,1.3,1.3,47,0.00,SCT,SKC,0.00,WeatherDisplay:10.37,2013-07-19 14:06:00,
2013-07-19 16:11:00,84.9,63.0,29.97,NW,315,2.0,2.3,48,0.00,SCT,SKC,0.00,WeatherDisplay:10.37,2013-07-19 14:11:00,
2013-07-19 16:16:00,84.4,63.1,29.97,NW,315,0.2,2.3,49,0.00,SCT,SKC,0.00,WeatherDisplay:10.37,2013-07-19 14:16:00,
2013-07-19 16:21:00,84.0,62.8,29.96,WNW,292,0.0,0.0,49,0.00,SCT,SKC,0.00,WeatherDisplay:10.37,2013-07-19 14:21:00,
2013-07-19 16:26:00,84.0,63.9,29.96,WNW,292,2.8,3.5,51,0.00,SCT,SKC,0.00,WeatherDisplay:10.37,2013-07-19 14:26:00,
2013-07-19 16:31:00,84.4,63.1,29.96,ESE,112,0.3,0.0,49,0.00,SCT,SKC,0.00,WeatherDisplay:10.37,2013-07-19 14:31:00,
2013-07-19 16:36:00,84.7,63.5,29.95,South,180,1.2,3.5,49,0.00,SCT,SKC,0.00,WeatherDisplay:10.37,2013-07-19 14:36:00,
2013-07-19 16:41:00,84.9,63.0,29.95,ENE,68,1.6,1.6,48,0.00,SCT,SKC,0.00,WeatherDisplay:10.37,2013-07-19 14:41:00,
2013-07-19 16:46:00,85.3,63.4,29.95,WSW,248,1.0,3.5,48,0.00,SCT,SKC,0.00,WeatherDisplay:10.37,2013-07-19 14:46:00,
2013-07-19 16:51:00,85.6,63.1,29.95,NW,315,0.3,2.3,47,0.00,SCT,SKC,0.00,WeatherDisplay:10.37,2013-07-19 14:51:00,
2013-07-19 16:56:00,85.6,63.7,29.95,SE,135,2.0,2.3,48,0.00,SCT,SKC,0.00,WeatherDisplay:10.37,2013-07-19 14:56:00,
2013-07-19 17:01:00,85.3,62.8,29.95,North,0,0.4,1.2,47,0.00,SCT,SKC,0.00,WeatherDisplay:10.37,2013-07-19 15:01:00,
2013-07-19 17:06:00,85.1,62.6,29.95,South,180,0.0,3.5,47,0.00,SCT,SKC,0.00,WeatherDisplay:10.37,2013-07-19 15:06:00,
2013-07-19 17:11:00,84.9,62.4,29.95,WNW,292,0.4,3.5,47,0.00,SCT,SKC,0.00,WeatherDisplay:10.37,2013-07-19 15:11:00,
2013-07-19 17:16:00,84.4,63.7,29.95,NNE,22,1.1,1.2,50,0.00,SCT,SKC,0.00,WeatherDisplay:10.37,2013-07-19 15:16:00,
2013-07-19 17:21:00,83.5,62.9,29.95,WNW,292,0.2,0.0,50,0.00,SCT,SKC,0.00,WeatherDisplay:10.37,2013-07-19 15:21:00,
2013-07-19 17:26:00,82.9,62.4,29.95,NNE,22,0.0,0.0,50,0.00,SCT,SKC,0.00,WeatherDisplay:10.37,2013-07-19 15:26:00,
2013-07-19 17:31:00,82.8,62.8,29.95,WNW,292,0.0,0.0,51,0.00,SCT,SKC,0.00,WeatherDisplay:10.37,2013-07-19 15:31:00,
2013-07-19 17:36:00,83.1,62.0,29.94,WSW,248,1.1,1.2,49,0.00,SCT,SKC,0.00,WeatherDisplay:10.37,2013-07-19 15:36:00,
2013-07-19 17:41:00,83.5,62.3,29.94,NNE,22,0.0,0.0,49,0.00,SCT,SKC,0.00,WeatherDisplay:10.37,2013-07-19 15:41:00,
2013-07-19 17:46:00,83.7,62.5,29.94,SE,135,0.5,3.5,49,0.00,SCT,SKC,0.00,WeatherDisplay:10.37,2013-07-19 15:46:00,
2013-07-19 17:51:00,83.8,62.1,29.94,West,270,2.2,2.3,48,0.00,CLR,SKC,0.00,WeatherDisplay:10.37,2013-07-19 15:51:00,
2013-07-19 17:56:00,84.0,62.2,29.94,WNW,292,2.5,3.5,48,0.00,CLR,SKC,0.00,WeatherDisplay:10.37,2013-07-19 15:56:00,
2013-07-19 18:01:00,83.8,62.6,29.94,NNW,338,0.0,0.0,49,0.00,CLR,SKC,0.00,WeatherDisplay:10.37,2013-07-19 16:01:00,
2013-07-19 18:06:00,83.5,62.9,29.94,South,180,0.0,0.0,50,0.00,CLR,SKC,0.00,WeatherDisplay:10.37,2013-07-19 16:06:00,
2013-07-19 18:11:00,83.7,62.5,29.94,WNW,292,0.0,0.0,49,0.00,CLR,SKC,0.00,WeatherDisplay:10.37,2013-07-19 16:11:00,
2013-07-19 18:16:00,83.5,63.4,29.93,NNW,338,0.0,0.0,51,0.00,CLR,SKC,0.00,WeatherDisplay:10.37,2013-07-19 16:16:00,
2013-07-19 18:21:00,83.3,63.3,29.93,WNW,292,0.2,0.0,51,0.00,CLR,SKC,0.00,WeatherDisplay:10.37,2013-07-19 16:21:00,
2013-07-19 18:26:00,83.1,63.1,29.93,West,270,3.4,3.5,51,0.00,CLR,SKC,0.00,WeatherDisplay:10.37,2013-07-19 16:26:00,
2013-07-19 18:31:00,83.1,63.7,29.93,WNW,292,0.0,1.2,52,0.00,CLR,SKC,0.00,WeatherDisplay:10.37,2013-07-19 16:31:00,
2013-07-19 18:36:00,82.9,62.4,29.93,South,180,0.0,0.0,50,0.00,CLR,SKC,0.00,WeatherDisplay:10.37,2013-07-19 16:36:00,
2013-07-19 18:41:00,82.9,62.4,29.93,NW,315,1.6,1.6,50,0.00,CLR,SKC,0.00,WeatherDisplay:10.37,2013-07-19 16:41:00,
2013-07-19 18:46:00,82.8,62.8,29.93,West,270,0.0,1.2,51,0.00,CLR,SKC,0.00,WeatherDisplay:10.37,2013-07-19 16:46:00,
2013-07-19 18:51:00,82.6,63.2,29.93,WNW,292,0.0,0.0,52,0.00,CLR,SKC,0.00,WeatherDisplay:10.37,2013-07-19 16:51:00,
2013-07-19 18:56:00,82.2,63.4,29.93,West,270,0.0,0.0,53,0.00,CLR,SKC,0.00,WeatherDisplay:10.37,2013-07-19 16:56:00,
2013-07-19 19:01:00,81.9,63.1,29.93,West,270,0.4,0.0,53,0.00,CLR,SKC,0.00,WeatherDisplay:10.37,2013-07-19 17:01:00,
2013-07-19 19:06:00,81.7,62.9,29.93,WNW,292,0.0,0.0,53,0.00,CLR,SKC,0.00,WeatherDisplay:10.37,2013-07-19 17:06:00,
2013-07-19 19:11:00,81.3,63.1,29.93,WNW,292,1.1,1.2,54,0.00,CLR,SKC,0.00,WeatherDisplay:10.37,2013-07-19 17:11:00,
2013-07-19 19:16:00,80.6,62.9,29.93,WNW,292,0.0,0.0,55,0.00,CLR,SKC,0.00,WeatherDisplay:10.37,2013-07-19 17:16:00,
2013-07-19 19:21:00,79.9,63.3,29.93,West,270,0.0,0.0,57,0.00,CLR,SKC,0.00,WeatherDisplay:10.37,2013-07-19 17:21:00,
2013-07-19 19:26:00,79.5,62.9,29.93,WNW,292,0.0,0.0,57,0.00,CLR,SKC,0.00,WeatherDisplay:10.37,2013-07-19 17:26:00,
2013-07-19 19:31:00,78.8,63.3,29.93,WNW,292,0.0,0.0,59,0.00,CLR,SKC,0.00,WeatherDisplay:10.37,2013-07-19 17:31:00,
2013-07-19 19:36:00,78.4,62.9,29.93,WNW,292,0.0,0.0,59,0.00,CLR,SKC,0.00,WeatherDisplay:10.37,2013-07-19 17:36:00,
2013-07-19 19:41:00,77.5,63.0,29.93,WNW,292,0.0,0.0,61,0.00,CLR,SKC,0.00,WeatherDisplay:10.37,2013-07-19 17:41:00,
2013-07-19 19:46:00,77.2,62.7,29.93,West,270,0.0,0.0,61,0.00,CLR,SKC,0.00,WeatherDisplay:10.37,2013-07-19 17:46:00,
2013-07-19 19:51:00,76.6,62.2,29.93,WNW,292,0.0,0.0,61,0.00,CLR,SKC,0.00,WeatherDisplay:10.37,2013-07-19 17:51:00,
2013-07-19 19:56:00,76.3,62.3,29.93,West,270,0.0,0.0,62,0.00,CLR,SKC,0.00,WeatherDisplay:10.37,2013-07-19 17:56:00,
2013-07-19 20:01:00,75.9,62.4,29.93,WNW,292,0.0,0.0,63,0.00,CLR,SKC,0.00,WeatherDisplay:10.37,2013-07-19 18:01:00,
2013-07-19 20:06:00,75.7,62.2,29.92,WNW,292,0.0,0.0,63,0.00,CLR,SKC,0.00,WeatherDisplay:10.37,2013-07-19 18:06:00,
2013-07-19 20:11:00,75.4,62.0,29.92,WNW,292,0.0,0.0,63,0.00,CLR,SKC,0.00,WeatherDisplay:10.37,2013-07-19 18:11:00,
2013-07-19 20:16:00,75.0,62.0,29.93,WNW,282,0.0,1.0,64,0.00,CLR,SKC,0.00,WeatherDisplay:10.37,2013-07-19 18:16:00,
2013-07-19 20:21:00,75.0,62.0,29.93,West,270,2.0,2.0,64,0.00,CLR,SKC,0.00,WeatherDisplay:10.37,2013-07-19 18:21:00,
2013-07-19 20:26:00,75.6,62.1,29.93,West,272,0.0,2.0,63,0.00,CLR,SKC,0.00,WeatherDisplay:10.37,2013-07-19 18:26:00,
2013-07-19 20:31:00,75.7,61.3,29.92,West,277,1.0,2.0,61,0.00,CLR,SKC,0.00,WeatherDisplay:10.37,2013-07-19 18:31:00,
2013-07-19 20:36:00,75.7,61.3,29.93,West,274,1.0,3.0,61,0.00,CLR,SKC,0.00,WeatherDisplay:10.37,2013-07-19 18:36:00,
2013-07-19 20:41:00,76.1,61.2,29.93,West,271,2.0,2.0,60,0.00,CLR,SKC,0.00,WeatherDisplay:10.37,2013-07-19 18:41:00,
2013-07-19 20:46:00,76.7,61.8,29.93,West,274,1.0,2.0,60,0.00,CLR,SKC,0.00,WeatherDisplay:10.37,2013-07-19 18:46:00,
2013-07-19 20:51:00,76.8,61.4,29.94,West,280,1.0,2.0,59,0.00,CLR,SKC,0.00,WeatherDisplay:10.37,2013-07-19 18:51:00,
2013-07-19 20:56:00,76.8,61.4,29.94,WNW,283,0.0,1.0,59,0.00,CLR,SKC,0.00,WeatherDisplay:10.37,2013-07-19 18:56:00,
2013-07-19 21:01:00,76.8,61.4,29.94,West,277,2.0,2.0,59,0.00,CLR,SKC,0.00,WeatherDisplay:10.37,2013-07-19 19:01:00,
2013-07-19 21:06:00,76.8,60.9,29.94,West,270,2.9,3.5,58,0.00,CLR,SKC,0.00,WeatherDisplay:10.37,2013-07-19 19:06:00,
2013-07-19 21:11:00,77.0,61.1,29.94,WNW,292,2.3,3.5,58,0.00,CLR,SKC,0.00,WeatherDisplay:10.37,2013-07-19 19:11:00,
2013-07-19 21:16:00,77.0,61.1,29.94,West,270,3.2,3.5,58,0.00,CLR,SKC,0.00,WeatherDisplay:10.37,2013-07-19 19:16:00,
2013-07-19 21:21:00,77.2,60.8,29.94,West,270,3.6,3.6,57,0.00,CLR,SKC,0.00,WeatherDisplay:10.37,2013-07-19 19:21:00,
2013-07-19 21:26:00,77.2,60.8,29.95,West,270,2.9,3.5,57,0.00,CLR,SKC,0.00,WeatherDisplay:10.37,2013-07-19 19:26:00,
2013-07-19 21:31:00,77.0,60.6,29.95,West,270,3.1,3.5,57,0.00,CLR,SKC,0.00,WeatherDisplay:10.37,2013-07-19 19:31:00,
2013-07-19 21:36:00,76.8,60.4,29.95,West,270,2.2,3.5,57,0.00,CLR,SKC,0.00,WeatherDisplay:10.37,2013-07-19 19:36:00,
2013-07-19 21:41:00,76.8,60.4,29.95,West,270,9.4,9.4,57,0.00,CLR,SKC,0.00,WeatherDisplay:10.37,2013-07-19 19:41:00,
2013-07-19 21:46:00,77.0,60.1,29.95,WSW,248,3.1,4.6,56,0.00,CLR,SKC,0.00,WeatherDisplay:10.37,2013-07-19 19:46:00,
2013-07-19 21:51:00,77.2,60.3,29.95,WNW,292,0.9,1.2,56,0.00,CLR,SKC,0.00,WeatherDisplay:10.37,2013-07-19 19:51:00,
2013-07-19 21:56:00,77.0,60.1,29.95,West,270,5.2,5.8,56,0.00,CLR,SKC,0.00,WeatherDisplay:10.37,2013-07-19 19:56:00,
2013-07-19 22:01:00,77.0,59.6,29.95,WSW,248,1.7,3.5,55,0.00,CLR,SKC,0.00,WeatherDisplay:10.37,2013-07-19 20:01:00,
2013-07-19 22:06:00,76.8,59.4,29.95,WNW,292,3.4,5.8,55,0.00,CLR,SKC,0.00,WeatherDisplay:10.37,2013-07-19 20:06:00,
2013-07-19 22:11:00,76.8,58.9,29.95,West,270,2.5,2.5,54,0.00,CLR,SKC,0.00,WeatherDisplay:10.37,2013-07-19 20:11:00,
2013-07-19 22:16:00,76.8,58.4,29.95,West,270,1.2,3.5,53,0.00,CLR,SKC,0.00,WeatherDisplay:10.37,2013-07-19 20:16:00,
2013-07-19 22:21:00,76.8,58.4,29.95,WNW,292,0.9,1.2,53,0.00,CLR,SKC,0.00,WeatherDisplay:10.37,2013-07-19 20:21:00,
2013-07-19 22:26:00,76.8,57.9,29.95,WSW,248,3.7,9.2,52,0.00,CLR,SKC,0.00,WeatherDisplay:10.37,2013-07-19 20:26:00,
2013-07-19 22:31:00,76.8,57.9,29.95,NW,315,3.3,6.9,52,0.00,CLR,SKC,0.00,WeatherDisplay:10.37,2013-07-19 20:31:00,
2013-07-19 22:36:00,76.8,57.9,29.95,WNW,292,3.8,3.8,52,0.00,CLR,SKC,0.00,WeatherDisplay:10.37,2013-07-19 20:36:00,
2013-07-19 22:41:00,76.6,57.7,29.95,NW,315,6.3,6.3,52,0.00,CLR,SKC,0.00,WeatherDisplay:10.37,2013-07-19 20:41:00,
2013-07-19 22:46:00,76.5,57.5,29.95,WNW,292,2.4,4.6,52,0.00,CLR,SKC,0.00,WeatherDisplay:10.37,2013-07-19 20:46:00,
2013-07-19 22:51:00,76.3,57.4,29.95,West,270,3.7,8.1,52,0.00,CLR,SKC,0.00,WeatherDisplay:10.37,2013-07-19 20:51:00,
2013-07-19 22:56:00,76.1,57.2,29.95,WNW,292,4.3,4.7,52,0.00,CLR,SKC,0.00,WeatherDisplay:10.37,2013-07-19 20:56:00,
2013-07-19 23:01:00,75.7,56.9,29.95,WNW,292,2.4,4.6,52,0.00,CLR,SKC,0.00,WeatherDisplay:10.37,2013-07-19 21:01:00,
2013-07-19 23:06:00,75.4,57.1,29.95,WNW,292,2.9,4.6,53,0.00,CLR,SKC,0.00,WeatherDisplay:10.37,2013-07-19 21:06:00,
2013-07-19 23:11:00,75.0,56.7,29.95,WSW,248,3.9,6.9,53,0.00,CLR,SKC,0.00,WeatherDisplay:10.37,2013-07-19 21:11:00,
2013-07-19 23:16:00,74.5,56.7,29.95,WNW,292,3.6,6.9,54,0.00,CLR,SKC,0.00,WeatherDisplay:10.37,2013-07-19 21:16:00,
2013-07-19 23:21:00,74.1,56.9,29.94,West,270,3.0,3.5,55,0.00,CLR,SKC,0.00,WeatherDisplay:10.37,2013-07-19 21:21:00,
2013-07-19 23:26:00,73.6,56.9,29.94,WNW,292,2.2,2.3,56,0.00,CLR,SKC,0.00,WeatherDisplay:10.37,2013-07-19 21:26:00,
2013-07-19 23:31:00,73.0,56.9,29.95,West,270,0.3,2.3,57,0.00,CLR,SKC,0.00,WeatherDisplay:10.37,2013-07-19 21:31:00,
2013-07-19 23:36:00,72.9,56.7,29.95,West,270,0.7,1.2,57,0.00,CLR,SKC,0.00,WeatherDisplay:10.37,2013-07-19 21:36:00,
2013-07-19 23:41:00,72.1,56.5,29.95,West,270,2.6,3.5,58,0.00,CLR,SKC,0.00,WeatherDisplay:10.37,2013-07-19 21:41:00,
2013-07-19 23:46:00,72.1,56.5,29.94,WNW,292,4.7,4.7,58,0.00,CLR,SKC,0.00,WeatherDisplay:10.37,2013-07-19 21:46:00,
2013-07-19 23:51:00,72.5,56.9,29.94,WNW,292,5.1,5.8,58,0.00,CLR,SKC,0.00,WeatherDisplay:10.37,2013-07-19 21:51:00,
2013-07-19 23:56:00,73.8,57.1,29.94,West,270,6.4,9.2,56,0.00,CLR,SKC,0.00,WeatherDisplay:10.37,2013-07-19 21:56:00,